• MPC Preparation (Info)

  • MPEC 2014-B17 : 2014 BS

    The following Minor Planet Electronic Circular may be linked-to from your own Web pages, but must not otherwise be redistributed electronically.

    A form allowing access to any MPEC is at the bottom of this page.


    Read MPEC 2014-B16 Read MPEC 2014-B18


    M.P.E.C. 2014-B17                                Issued 2014 Jan. 21, 19:01 UT
    
         The Minor Planet Electronic Circulars contain information on unusual
             minor planets and routine data on comets.  They are published
       on behalf of Commission 20 of the International Astronomical Union by the
              Minor Planet Center, Smithsonian Astrophysical Observatory,
                              Cambridge, MA 02138, U.S.A.
    
                 Prepared using the Tamkin Foundation Computer Network
    
                                  MPC@CFA.HARVARD.EDU
                URL https://www.minorplanetcenter.net/    ISSN 1523-6714
    
                                        2014 BS
    
    Observations:
         K14B00S* C2014 01 20.37220 08 08 07.03 +17 33 30.8          19.7 VqEB017G96
         K14B00S  C2014 01 20.37733 08 08 06.44 +17 32 22.8          20.5 VqEB017G96
         K14B00S  C2014 01 20.38247 08 08 05.77 +17 31 13.1          20.5 VqEB017G96
         K14B00S  C2014 01 20.38765 08 08 05.20 +17 30 02.8          20.2 VqEB017G96
         K14B00S  C2014 01 20.44274 08 07 58.97 +17 17 34.3          20.6 VqEB017G96
         K14B00S  C2014 01 20.44691 08 07 58.57 +17 16 37.6          20.5 VqEB017G96
         K14B00S  C2014 01 20.44853 08 07 58.35 +17 16 14.8          21.1 VqEB017G96
         K14B00S  C2014 01 20.45270 08 07 57.97 +17 15 18.3          20.6 VqEB017G96
         K14B00S  C2014 01 20.45437 08 07 57.76 +17 14 55.9          20.4 VqEB017G96
         K14B00S  C2014 01 20.45855 08 07 57.41 +17 13 57.2          21.6 VqEB017G96
         K14B00S  C2014 01 20.46022 08 07 57.15 +17 13 36.2          21.1 VqEB017G96
         K14B00S  C2014 01 20.46438 08 07 56.75 +17 12 38.8          20.6 VqEB017G96
         K14B00S  C2014 01 21.40977 08 06 59.56 +13 40 20.8          20.4 VqEB017G96
         K14B00S  C2014 01 21.41027 08 06 59.52 +13 40 13.9          20.8 VqEB017G96
         K14B00S  C2014 01 21.41076 08 06 59.44 +13 40 07.0          20.1 VqEB017G96
         K14B00S  C2014 01 21.41126 08 06 59.40 +13 40 00.3          20.7 VqEB017G96
    
    Observer details:
    G96 Mt. Lemmon Survey.  Observer E. J. Christensen.  Measurers A. Boattini,
        E. J. Christensen, A. R. Gibbs, A. D. Grauer, R. E. Hill, J. A. Johnson,
        R. A. Kowalski, S. M. Larson, F. C. Shelly.  1.5-m reflector + CCD.
    
    Orbital elements:
    2014 BS                                                  Earth MOID = 0.0531 AU
    Epoch 2013 Nov. 4.0 TT = JDT 2456600.5                  MPC
    M 300.94427              (2000.0)            P               Q
    n   0.69714082     Peri.  188.11669     -0.60630231     -0.77800198
    a   1.2596669      Node   299.36575     +0.73981318     -0.47588458
    e   0.1770863      Incl.   10.89025     +0.29167442     -0.41017898
    P   1.41           H   26.5           G   0.15           U   8
    Residuals in seconds of arc
    140120 G96  0.1-  0.9-    140120 G96  0.4-  0.3-    140121 G96  0.0   0.1+
    140120 G96  0.3+  0.5+    140120 G96  0.3+  0.0     140121 G96  0.2+  0.1+
    140120 G96  0.5-  0.3+    140120 G96  0.2-  0.4+    140121 G96  0.2-  0.2-
    140120 G96  0.2+  0.2+    140120 G96  0.9+  1.3-    140121 G96  0.0   0.0
    140120 G96  0.2-  0.3+    140120 G96  0.4-  0.5+
    140120 G96  0.3+  0.4+    140120 G96  0.2-  0.1-
    
    Ephemeris:
    2014 BS                  a,e,i = 1.26, 0.18, 11                  q = 1.0366
    Date    TT    R. A. (2000) Decl.     Delta      r     Elong.  Phase     V
    2013 12 22    08 24 23.9 +70 05 07   0.1272  1.0680   128.8    45.9    23.9
    ...
    2014 01 06    08 24 03.8 +56 45 32   0.07946 1.0479   143.0    34.4    22.5
    ...
    2014 01 14    08 15 21.6 +39 09 48   0.06073 1.0411   160.8    18.1    21.4
    ...
    2014 01 20    08 08 34.4 +18 57 30   0.05402 1.0380   178.7     1.2    20.4
    2014 01 21    08 07 30.7 +15 13 38   0.05374 1.0376   175.1     4.6    20.6
    2014 01 22    08 06 28.8 +11 28 49   0.05373 1.0373   171.4     8.2    20.8
    ...
    2014 01 28    08 01 04.4 -09 20 56   0.05880 1.0365   150.6    27.8    21.7
    ...
    2014 02 05    07 56 44.7 -28 05 46   0.07557 1.0381   132.1    44.8    22.7
    ...
    2014 02 20    07 58 52.8 -42 55 45   0.1182  1.0493   118.0    56.3    24.0
    
    A. U. Tomatic                (C) Copyright 2014 MPC           M.P.E.C. 2014-B17
    

    Read MPEC 2014-B16 Read MPEC 2014-B18


    MPEC number:

    Enter an MPEC number in one of the following forms:

    • 1997-B01 (the full form)
    • J97B01 (the packed version of the full form)
    • B01 (the abbreviated form)